Time,TemperatureF,DewpointF,PressureIn,WindDirection,WindDirectionDegrees,WindSpeedMPH,WindSpeedGustMPH,Humidity,HourlyPrecipIn,Conditions,Clouds,dailyrainin,SoftwareType,DateUTC
2015-03-04 00:13:00,36.0,35.0,29.86,West,262,2.0,7.0,98,0.04,,,-99.99,,2015-03-04 05:13:00,
2015-03-04 00:23:00,36.0,35.0,29.86,West,275,3.0,9.0,98,0.00,,,-99.99,,2015-03-04 05:23:00,
2015-03-04 00:43:00,36.0,35.0,29.84,West,275,3.0,5.0,98,0.00,,,-99.99,,2015-03-04 05:43:00,
2015-03-04 00:52:00,35.0,34.0,29.85,West,275,0.0,6.0,98,0.00,,,-99.99,,2015-03-04 05:52:00,
2015-03-04 01:12:00,35.0,34.0,29.85,West,275,0.0,5.0,98,0.00,,,-99.99,,2015-03-04 06:12:00,
2015-03-04 01:23:00,35.0,34.0,29.85,West,275,1.0,5.0,98,0.00,,,-99.99,,2015-03-04 06:23:00,
2015-03-04 01:42:00,35.0,34.0,29.86,West,275,0.0,4.0,98,0.06,,,-99.99,,2015-03-04 06:42:00,
2015-03-04 01:52:00,35.0,34.0,29.85,West,275,0.0,0.0,98,0.12,,,-99.99,,2015-03-04 06:52:00,
2015-03-04 02:12:00,35.0,34.0,29.87,West,274,0.0,0.0,98,0.12,,,-99.99,,2015-03-04 07:12:00,
2015-03-04 02:22:00,35.0,34.0,29.86,West,274,0.0,0.0,98,0.10,,,-99.99,,2015-03-04 07:22:00,
2015-03-04 02:42:00,34.0,34.0,29.86,West,274,0.0,0.0,98,0.10,,,-99.99,,2015-03-04 07:42:00,
2015-03-04 02:52:00,34.0,34.0,29.88,West,274,0.0,0.0,98,0.11,,,-99.99,,2015-03-04 07:52:00,
2015-03-04 03:12:00,34.0,34.0,29.87,West,274,0.0,0.0,98,0.14,,,-99.99,,2015-03-04 08:12:00,
2015-03-04 03:22:00,34.0,34.0,29.88,West,274,0.0,0.0,98,0.17,,,-99.99,,2015-03-04 08:22:00,
2015-03-04 03:43:00,34.0,34.0,29.89,West,274,0.0,0.0,98,0.18,,,-99.99,,2015-03-04 08:43:00,
2015-03-04 03:52:00,34.0,34.0,29.88,West,274,0.0,0.0,98,0.17,,,-99.99,,2015-03-04 08:52:00,
2015-03-04 04:12:00,34.0,34.0,29.87,West,274,0.0,0.0,98,0.14,,,-99.99,,2015-03-04 09:12:00,
2015-03-04 04:22:00,33.0,32.0,29.88,West,274,0.0,0.0,98,0.17,,,-99.99,,2015-03-04 09:22:00,
2015-03-04 04:43:00,33.0,32.0,29.86,West,274,0.0,0.0,98,0.15,,,-99.99,,2015-03-04 09:43:00,
2015-03-04 04:54:00,33.0,32.0,29.87,West,274,0.0,0.0,98,0.10,,,-99.99,,2015-03-04 09:54:00,
2015-03-04 05:13:00,33.0,32.0,29.88,West,274,0.0,0.0,98,0.05,,,-99.99,,2015-03-04 10:13:00,
2015-03-04 05:24:00,33.0,32.0,29.87,West,274,0.0,0.0,98,0.05,,,-99.99,,2015-03-04 10:24:00,
2015-03-04 05:43:00,33.0,32.0,29.89,West,274,0.0,0.0,98,0.04,,,-99.99,,2015-03-04 10:43:00,
2015-03-04 05:53:00,33.0,32.0,29.91,West,274,0.0,0.0,98,0.00,,,-99.99,,2015-03-04 10:53:00,
2015-03-04 06:12:00,33.0,32.0,29.90,West,274,0.0,0.0,98,0.00,,,-99.99,,2015-03-04 11:12:00,
2015-03-04 06:43:00,33.0,32.0,29.91,West,274,0.0,0.0,98,0.00,,,-99.99,,2015-03-04 11:43:00,
2015-03-04 06:53:00,33.0,32.0,29.91,West,274,0.0,0.0,98,0.00,,,-99.99,,2015-03-04 11:53:00,
2015-03-04 07:12:00,33.0,32.0,29.91,West,274,0.0,0.0,98,0.00,,,-99.99,,2015-03-04 12:12:00,
2015-03-04 07:22:00,32.0,32.0,29.92,West,274,0.0,0.0,98,0.00,,,-99.99,,2015-03-04 12:22:00,
2015-03-04 07:42:00,32.0,32.0,29.93,West,274,0.0,0.0,98,0.00,,,-99.99,,2015-03-04 12:42:00,
2015-03-04 07:53:00,32.0,32.0,29.93,West,274,0.0,0.0,98,0.00,,,-99.99,,2015-03-04 12:53:00,
2015-03-04 08:12:00,32.0,32.0,29.95,West,274,0.0,0.0,98,0.00,,,-99.99,,2015-03-04 13:12:00,
2015-03-04 08:22:00,32.0,32.0,29.94,West,274,0.0,0.0,98,0.00,,,-99.99,,2015-03-04 13:22:00,
2015-03-04 08:43:00,32.0,32.0,29.96,West,274,0.0,0.0,98,0.00,,,-99.99,,2015-03-04 13:43:00,
2015-03-04 08:52:00,32.0,32.0,29.95,West,274,0.0,0.0,98,0.00,,,-99.99,,2015-03-04 13:52:00,
2015-03-04 09:12:00,32.0,32.0,29.95,West,274,0.0,0.0,98,0.00,,,-99.99,,2015-03-04 14:12:00,
2015-03-04 09:22:00,32.0,32.0,29.97,West,274,0.0,0.0,98,0.00,,,-99.99,,2015-03-04 14:22:00,
2015-03-04 09:42:00,33.0,33.0,29.95,West,274,0.0,0.0,99,0.00,,,-99.99,,2015-03-04 14:42:00,
2015-03-04 09:52:00,33.0,32.0,29.96,West,274,0.0,0.0,98,0.00,,,-99.99,,2015-03-04 14:52:00,
2015-03-04 10:12:00,33.0,33.0,29.96,West,274,0.0,0.0,99,0.00,,,-99.99,,2015-03-04 15:12:00,
2015-03-04 10:22:00,33.0,33.0,29.97,WNW,285,0.0,0.0,99,0.00,,,-99.99,,2015-03-04 15:22:00,
2015-03-04 10:44:00,33.0,32.0,29.96,NW,310,0.0,0.0,98,0.00,,,-99.99,,2015-03-04 15:44:00,
2015-03-04 10:53:00,33.0,32.0,29.96,NW,319,0.0,0.0,98,0.00,,,-99.99,,2015-03-04 15:53:00,
2015-03-04 11:13:00,33.0,33.0,29.94,NW,320,0.0,0.0,99,0.00,,,-99.99,,2015-03-04 16:13:00,